Location: Kellogg
(38.0159°N, 90.0546°W)
Time: 14:48:56
(UTC+00:00)

Altair - Pass Details

Date: 22 September 2024
Orbit: 1501 x 1682 km, 47.2° (Epoch: 15 October)

Event Time Altitude Azimuth Distance (km) Brightness Sun altitude
Exits shadow 06:53:55 37° 57° (ENE) 2,395 8.6 -49.4°
Drops below altitude 10° 06:59:14 10° 59° (ENE) 3,940 10.0 -48.9°
Sets 07:02:26 0° 60° (ENE) 4,937 10.7 -48.7°
